Time,TemperatureF,DewpointF,PressureIn,WindDirection,WindDirectionDegrees,WindSpeedMPH,WindSpeedGustMPH,Humidity,HourlyPrecipIn,Conditions,Clouds,dailyrainin,SoftwareType,DateUTC
2013-06-28 00:07:00,62.9,58.0,29.60,West,269,3.0,-999.0,85,-99.99,,,0.00,weatherlink.com 1.10,2013-06-28 05:07:00,
2013-06-28 00:22:00,62.4,58.0,29.59,West,264,6.0,-999.0,86,-99.99,,,0.00,weatherlink.com 1.10,2013-06-28 05:22:00,
2013-06-28 00:37:00,62.4,58.0,29.59,West,274,4.0,-999.0,86,-99.99,,,0.00,weatherlink.com 1.10,2013-06-28 05:37:00,
2013-06-28 00:52:00,62.3,58.0,29.59,WSW,252,5.0,-999.0,86,-99.99,,,0.00,weatherlink.com 1.10,2013-06-28 05:52:00,
2013-06-28 01:07:00,62.3,58.0,29.59,WSW,244,8.0,-999.0,86,-99.99,,,0.00,weatherlink.com 1.10,2013-06-28 06:07:00,
2013-06-28 01:22:00,62.4,58.0,29.59,West,276,3.0,-999.0,86,-99.99,,,0.00,weatherlink.com 1.10,2013-06-28 06:22:00,
2013-06-28 01:37:00,62.7,58.0,29.58,WSW,255,6.0,-999.0,85,-99.99,,,0.00,weatherlink.com 1.10,2013-06-28 06:37:00,
2013-06-28 01:52:00,63.2,59.0,29.57,West,265,4.0,-999.0,85,-99.99,,,0.00,weatherlink.com 1.10,2013-06-28 06:52:00,
2013-06-28 02:07:00,63.1,59.0,29.58,WNW,282,15.0,-999.0,85,-99.99,,,0.00,weatherlink.com 1.10,2013-06-28 07:07:00,
2013-06-28 02:22:00,62.7,59.0,29.57,WNW,288,0.0,-999.0,86,-99.99,,,0.00,weatherlink.com 1.10,2013-06-28 07:22:00,
2013-06-28 02:37:00,62.4,59.0,29.57,WNW,293,1.0,-999.0,88,-99.99,,,0.00,weatherlink.com 1.10,2013-06-28 07:37:00,
2013-06-28 02:52:00,62.0,59.0,29.57,WNW,297,7.0,-999.0,88,-99.99,,,0.00,weatherlink.com 1.10,2013-06-28 07:52:00,
2013-06-28 03:07:00,61.6,58.0,29.56,West,262,2.0,-999.0,89,-99.99,,,0.00,weatherlink.com 1.10,2013-06-28 08:07:00,
2013-06-28 03:22:00,61.3,58.0,29.56,West,262,6.0,-999.0,89,-99.99,,,0.00,weatherlink.com 1.10,2013-06-28 08:22:00,
2013-06-28 03:37:00,61.3,58.0,29.57,West,279,5.0,-999.0,89,-99.99,,,0.00,weatherlink.com 1.10,2013-06-28 08:37:00,
2013-06-28 03:52:00,61.5,58.0,29.56,WNW,286,6.0,-999.0,89,-99.99,,,0.00,weatherlink.com 1.10,2013-06-28 08:52:00,
2013-06-28 04:07:00,62.0,59.0,29.55,WNW,282,4.0,-999.0,88,-99.99,,,0.00,weatherlink.com 1.10,2013-06-28 09:07:00,
2013-06-28 04:22:00,62.1,59.0,29.56,WNW,296,5.0,-999.0,88,-99.99,,,0.00,weatherlink.com 1.10,2013-06-28 09:22:00,
2013-06-28 04:37:00,62.3,59.0,29.56,West,277,5.0,-999.0,88,-99.99,,,0.00,weatherlink.com 1.10,2013-06-28 09:37:00,
2013-06-28 04:52:00,62.4,59.0,29.56,West,274,6.0,-999.0,89,-99.99,,,0.00,weatherlink.com 1.10,2013-06-28 09:52:00,
2013-06-28 05:07:00,62.3,60.0,29.56,West,278,5.0,-999.0,92,-99.99,,,0.00,weatherlink.com 1.10,2013-06-28 10:07:00,
2013-06-28 05:22:00,62.0,60.0,29.57,WNW,298,8.0,-999.0,93,-99.99,,,0.00,weatherlink.com 1.10,2013-06-28 10:22:00,
2013-06-28 05:37:00,62.0,60.0,29.57,WNW,294,5.0,-999.0,93,-99.99,,,0.00,weatherlink.com 1.10,2013-06-28 10:37:00,
2013-06-28 05:53:00,62.0,60.0,29.57,WNW,297,8.0,-999.0,94,-99.99,,,0.00,weatherlink.com 1.10,2013-06-28 10:53:00,
2013-06-28 06:08:00,61.6,61.0,29.57,WNW,295,3.0,-999.0,96,-99.99,,,0.00,weatherlink.com 1.10,2013-06-28 11:08:00,
2013-06-28 06:23:00,61.6,61.0,29.57,West,275,3.0,-999.0,96,-99.99,,,0.00,weatherlink.com 1.10,2013-06-28 11:23:00,
2013-06-28 06:38:00,61.6,60.0,29.57,West,277,7.0,-999.0,95,-99.99,,,0.00,weatherlink.com 1.10,2013-06-28 11:38:00,
2013-06-28 06:53:00,61.8,60.0,29.57,NNW,337,1.0,-999.0,95,-99.99,,,0.00,weatherlink.com 1.10,2013-06-28 11:53:00,
2013-06-28 07:08:00,62.0,60.0,29.57,NW,325,3.0,-999.0,94,-99.99,,,0.00,weatherlink.com 1.10,2013-06-28 12:08:00,
2013-06-28 07:23:00,62.3,60.0,29.58,WNW,286,5.0,-999.0,93,-99.99,,,0.00,weatherlink.com 1.10,2013-06-28 12:23:00,
2013-06-28 07:38:00,62.3,60.0,29.58,WNW,283,11.0,-999.0,92,-99.99,,,0.00,weatherlink.com 1.10,2013-06-28 12:38:00,
2013-06-28 07:53:00,62.7,60.0,29.58,WSW,241,3.0,-999.0,92,-99.99,,,0.00,weatherlink.com 1.10,2013-06-28 12:53:00,
2013-06-28 08:08:00,62.9,61.0,29.58,West,274,14.0,-999.0,92,-99.99,,,0.00,weatherlink.com 1.10,2013-06-28 13:08:00,
2013-06-28 08:23:00,62.9,61.0,29.59,West,270,3.0,-999.0,94,-99.99,,,0.00,weatherlink.com 1.10,2013-06-28 13:23:00,
2013-06-28 08:38:00,62.7,61.0,29.59,West,278,2.0,-999.0,95,-99.99,,,0.00,weatherlink.com 1.10,2013-06-28 13:38:00,
2013-06-28 08:53:00,62.9,62.0,29.59,WNW,294,11.0,-999.0,96,-99.99,,,0.00,weatherlink.com 1.10,2013-06-28 13:53:00,
2013-06-28 09:08:00,63.5,61.0,29.59,NW,307,12.0,-999.0,92,-99.99,,,0.00,weatherlink.com 1.10,2013-06-28 14:08:00,
2013-06-28 09:23:00,64.3,61.0,29.59,WNW,303,7.0,-999.0,88,-99.99,,,0.00,weatherlink.com 1.10,2013-06-28 14:23:00,
2013-06-28 09:38:00,65.5,61.0,29.59,NNW,341,7.0,-999.0,86,-99.99,,,0.00,weatherlink.com 1.10,2013-06-28 14:38:00,
2013-06-28 09:53:00,65.5,63.0,29.59,WNW,288,4.0,-999.0,90,-99.99,,,0.00,weatherlink.com 1.10,2013-06-28 14:53:00,
2013-06-28 10:08:00,64.7,62.0,29.60,NW,324,11.0,-999.0,92,-99.99,,,0.00,weatherlink.com 1.10,2013-06-28 15:08:00,
2013-06-28 10:23:00,65.3,63.0,29.60,NW,317,11.0,-999.0,92,-99.99,,,0.00,weatherlink.com 1.10,2013-06-28 15:23:00,
2013-06-28 10:38:00,66.3,62.0,29.60,NW,316,17.0,-999.0,85,-99.99,,,0.00,weatherlink.com 1.10,2013-06-28 15:38:00,
2013-06-28 10:53:00,67.9,62.0,29.60,WNW,289,12.0,-999.0,81,-99.99,,,0.00,weatherlink.com 1.10,2013-06-28 15:53:00,
2013-06-28 11:08:00,67.9,62.0,29.60,NW,326,6.0,-999.0,81,-99.99,,,0.00,weatherlink.com 1.10,2013-06-28 16:08:00,
2013-06-28 11:23:00,67.9,60.0,29.60,NW,315,5.0,-999.0,76,-99.99,,,0.00,weatherlink.com 1.10,2013-06-28 16:23:00,
2013-06-28 11:38:00,67.9,60.0,29.61,NW,322,11.0,-999.0,76,-99.99,,,0.00,weatherlink.com 1.10,2013-06-28 16:38:00,
2013-06-28 11:53:00,68.9,61.0,29.61,NW,326,2.0,-999.0,75,-99.99,,,0.00,weatherlink.com 1.10,2013-06-28 16:53:00,
2013-06-28 12:09:00,68.8,60.0,29.61,WNW,282,0.0,-999.0,74,-99.99,,,0.00,weatherlink.com 1.10,2013-06-28 17:09:00,
2013-06-28 12:24:00,69.6,61.0,29.62,NW,319,11.0,-999.0,73,-99.99,,,0.00,weatherlink.com 1.10,2013-06-28 17:24:00,
2013-06-28 12:39:00,69.3,62.0,29.62,NNW,329,3.0,-999.0,77,-99.99,,,0.00,weatherlink.com 1.10,2013-06-28 17:39:00,
2013-06-28 12:54:00,71.3,61.0,29.61,NNW,342,4.0,-999.0,70,-99.99,,,0.00,weatherlink.com 1.10,2013-06-28 17:54:00,
2013-06-28 13:09:00,73.3,60.0,29.61,WNW,303,9.0,-999.0,64,-99.99,,,0.00,weatherlink.com 1.10,2013-06-28 18:09:00,
2013-06-28 13:24:00,73.2,60.0,29.61,West,279,11.0,-999.0,64,-99.99,,,0.00,weatherlink.com 1.10,2013-06-28 18:24:00,
2013-06-28 13:39:00,74.4,61.0,29.61,WNW,290,4.0,-999.0,64,-99.99,,,0.00,weatherlink.com 1.10,2013-06-28 18:39:00,
2013-06-28 13:54:00,73.5,61.0,29.61,NW,312,13.0,-999.0,65,-99.99,,,0.00,weatherlink.com 1.10,2013-06-28 18:54:00,
2013-06-28 14:09:00,72.1,61.0,29.61,NW,314,9.0,-999.0,69,-99.99,,,0.00,weatherlink.com 1.10,2013-06-28 19:09:00,
2013-06-28 14:24:00,71.5,63.0,29.61,NNW,332,0.0,-999.0,75,-99.99,,,0.00,weatherlink.com 1.10,2013-06-28 19:24:00,
2013-06-28 14:39:00,68.9,64.0,29.63,North,1,0.0,-999.0,83,-99.99,,,0.00,weatherlink.com 1.10,2013-06-28 19:39:00,
2013-06-28 14:54:00,68.4,63.0,29.63,ENE,61,3.0,-999.0,82,-99.99,,,0.00,weatherlink.com 1.10,2013-06-28 19:54:00,
2013-06-28 15:09:00,69.8,61.0,29.63,North,0,11.0,-999.0,74,-99.99,,,0.00,weatherlink.com 1.10,2013-06-28 20:09:00,
2013-06-28 15:24:00,70.8,61.0,29.63,North,0,5.0,-999.0,70,-99.99,,,0.00,weatherlink.com 1.10,2013-06-28 20:24:00,
2013-06-28 15:39:00,70.4,60.0,29.63,North,350,2.0,-999.0,70,-99.99,,,0.00,weatherlink.com 1.10,2013-06-28 20:39:00,
2013-06-28 15:54:00,70.4,61.0,29.63,ESE,110,3.0,-999.0,72,-99.99,,,0.00,weatherlink.com 1.10,2013-06-28 20:54:00,
2013-06-28 16:24:00,66.3,61.0,29.65,East,101,2.0,-999.0,83,-99.99,,,0.00,weatherlink.com 1.10,2013-06-28 21:24:00,
2013-06-28 16:39:00,66.9,61.0,29.64,East,95,0.0,-999.0,82,-99.99,,,0.00,weatherlink.com 1.10,2013-06-28 21:39:00,
2013-06-28 16:54:00,68.8,62.0,29.64,East,96,0.0,-999.0,79,-99.99,,,0.00,weatherlink.com 1.10,2013-06-28 21:54:00,
2013-06-28 17:09:00,69.9,62.0,29.65,ESE,110,3.0,-999.0,76,-99.99,,,0.00,weatherlink.com 1.10,2013-06-28 22:09:00,
2013-06-28 17:24:00,68.9,63.0,29.65,East,82,1.0,-999.0,80,-99.99,,,0.00,weatherlink.com 1.10,2013-06-28 22:24:00,
2013-06-28 17:39:00,67.9,63.0,29.65,NNE,30,3.0,-999.0,85,-99.99,,,0.02,weatherlink.com 1.10,2013-06-28 22:39:00,
2013-06-28 17:54:00,66.6,63.0,29.66,NNE,24,1.0,-999.0,89,-99.99,,,0.03,weatherlink.com 1.10,2013-06-28 22:54:00,
2013-06-28 18:09:00,66.1,64.0,29.65,NNE,24,0.0,-999.0,93,-99.99,,,0.03,weatherlink.com 1.10,2013-06-28 23:09:00,
2013-06-28 18:24:00,65.8,64.0,29.66,NNE,24,1.0,-999.0,94,-99.99,,,0.04,weatherlink.com 1.10,2013-06-28 23:24:00,
2013-06-28 18:39:00,65.6,64.0,29.66,NNE,24,0.0,-999.0,95,-99.99,,,0.04,weatherlink.com 1.10,2013-06-28 23:39:00,
2013-06-28 18:54:00,65.5,64.0,29.67,NNE,24,0.0,-999.0,96,-99.99,,,0.04,weatherlink.com 1.10,2013-06-28 23:54:00,
2013-06-28 19:09:00,65.3,64.0,29.67,NNE,24,0.0,-999.0,96,-99.99,,,0.04,weatherlink.com 1.10,2013-06-29 00:09:00,
2013-06-28 19:24:00,65.2,64.0,29.67,NW,311,2.0,-999.0,96,-99.99,,,0.04,weatherlink.com 1.10,2013-06-29 00:24:00,
2013-06-28 19:39:00,64.3,63.0,29.67,WNW,299,0.0,-999.0,96,-99.99,,,0.04,weatherlink.com 1.10,2013-06-29 00:39:00,
2013-06-28 19:54:00,64.0,63.0,29.68,WNW,299,0.0,-999.0,96,-99.99,,,0.04,weatherlink.com 1.10,2013-06-29 00:54:00,
2013-06-28 20:09:00,64.0,63.0,29.68,WNW,299,0.0,-999.0,96,-99.99,,,0.05,weatherlink.com 1.10,2013-06-29 01:09:00,
2013-06-28 20:24:00,63.9,63.0,29.68,WNW,299,0.0,-999.0,97,-99.99,,,0.05,weatherlink.com 1.10,2013-06-29 01:24:00,
2013-06-28 20:39:00,63.9,63.0,29.68,WNW,299,0.0,-999.0,97,-99.99,,,0.05,weatherlink.com 1.10,2013-06-29 01:39:00,
2013-06-28 20:54:00,63.7,63.0,29.68,North,11,3.0,-999.0,97,-99.99,,,0.07,weatherlink.com 1.10,2013-06-29 01:54:00,
2013-06-28 21:09:00,63.2,62.0,29.69,NNE,32,0.0,-999.0,97,-99.99,,,0.08,weatherlink.com 1.10,2013-06-29 02:09:00,
2013-06-28 21:24:00,62.6,62.0,29.68,ENE,68,0.0,-999.0,97,-99.99,,,0.08,weatherlink.com 1.10,2013-06-29 02:24:00,
2013-06-28 21:39:00,62.1,61.0,29.69,ENE,65,1.0,-999.0,97,-99.99,,,0.09,weatherlink.com 1.10,2013-06-29 02:39:00,
2013-06-28 21:54:00,61.5,61.0,29.70,NE,53,0.0,-999.0,97,-99.99,,,0.10,weatherlink.com 1.10,2013-06-29 02:54:00,
2013-06-28 22:09:00,61.3,61.0,29.70,ENE,57,1.0,-999.0,97,-99.99,,,0.13,weatherlink.com 1.10,2013-06-29 03:09:00,
2013-06-28 22:24:00,61.2,60.0,29.70,East,94,6.0,-999.0,97,-99.99,,,0.16,weatherlink.com 1.10,2013-06-29 03:24:00,
2013-06-28 22:39:00,60.2,59.0,29.70,ENE,71,4.0,-999.0,97,-99.99,,,0.18,weatherlink.com 1.10,2013-06-29 03:39:00,
2013-06-28 22:54:00,59.8,59.0,29.70,ENE,63,1.0,-999.0,97,-99.99,,,0.22,weatherlink.com 1.10,2013-06-29 03:54:00,
2013-06-28 23:09:00,59.6,59.0,29.70,ENE,62,0.0,-999.0,97,-99.99,,,0.23,weatherlink.com 1.10,2013-06-29 04:09:00,
2013-06-28 23:24:00,59.6,59.0,29.70,ENE,61,0.0,-999.0,98,-99.99,,,0.23,weatherlink.com 1.10,2013-06-29 04:24:00,
2013-06-28 23:39:00,59.6,59.0,29.69,ENE,59,0.0,-999.0,99,-99.99,,,0.23,weatherlink.com 1.10,2013-06-29 04:39:00,
2013-06-28 23:54:00,59.6,59.0,29.70,NNE,31,5.0,-999.0,99,-99.99,,,0.24,weatherlink.com 1.10,2013-06-29 04:54:00,